�������l�o���
Date,Time,MP-1(��Sv/h),MP-2(��Sv/h),MP-3(��Sv/h),MP-4(��Sv/h),MP-5(��Sv/h),MP-6(��Sv/h),MP-7(��Sv/h),MP-8(��Sv/h),����,����(m/s),���J
2017/01/05,00:00,1.102,1.828,1.196,2.094,1.435,0.568,1.038,0.962,�k��,2.0,��
2017/01/05,00:10,1.099,1.829,1.201,2.095,1.436,0.569,1.037,0.962,�k��,0.9,��
2017/01/05,00:20,1.102,1.829,1.198,2.093,1.436,0.568,1.039,0.961,�k��,1.2,��
2017/01/05,00:30,1.104,1.829,1.197,2.094,1.434,0.568,1.037,0.960,�k��,1.7,��
2017/01/05,00:40,1.100,1.829,1.198,2.095,1.436,0.569,1.036,0.962,�k�k��,0.6,��
2017/01/05,00:50,1.102,1.831,1.197,2.092,1.438,0.570,1.037,0.960,�k,0.8,��
2017/01/05,01:00,1.103,1.830,1.196,2.095,1.436,0.566,1.036,0.961,�k�k��,1.4,��
2017/01/05,01:10,1.103,1.828,1.196,2.094,1.437,0.569,1.038,0.962,�k�k��,1.5,��
2017/01/05,01:20,1.101,1.833,1.198,2.093,1.434,0.567,1.038,0.963,�k�k��,2.6,��
2017/01/05,01:30,1.100,1.827,1.199,2.097,1.435,0.568,1.039,0.960,�k,2.9,��
2017/01/05,01:40,1.101,1.828,1.196,2.094,1.433,0.570,1.037,0.962,�k,3.0,��
2017/01/05,01:50,1.103,1.829,1.198,2.093,1.432,0.567,1.038,0.963,�k�k��,3.4,��
2017/01/05,02:00,1.101,1.828,1.198,2.094,1.436,0.568,1.036,0.959,�k��,4.0,��
2017/01/05,02:10,1.099,1.826,1.197,2.090,1.437,0.568,1.037,0.961,�k��,3.6,��
2017/01/05,02:20,1.099,1.826,1.197,2.094,1.437,0.568,1.038,0.962,�k�k��,3.5,��
2017/01/05,02:30,1.099,1.831,1.196,2.094,1.438,0.567,1.039,0.963,�k��,5.2,��
2017/01/05,02:40,1.099,1.828,1.196,2.094,1.434,0.567,1.039,0.964,�k�k��,5.0,��
2017/01/05,02:50,1.100,1.828,1.197,2.091,1.435,0.568,1.037,0.961,�k��,5.3,��
2017/01/05,03:00,1.101,1.830,1.197,2.091,1.434,0.568,1.038,0.962,�k�k��,6.2,��
2017/01/05,03:10,1.099,1.829,1.197,2.094,1.437,0.568,1.038,0.960,�k,4.4,��
2017/01/05,03:20,1.099,1.828,1.196,2.095,1.437,0.569,1.039,0.962,�k�k��,4.1,��
2017/01/05,03:30,1.103,1.829,1.198,2.095,1.434,0.569,1.038,0.962,�k�k��,2.9,��
2017/01/05,03:40,1.099,1.827,1.197,2.092,1.436,0.569,1.036,0.962,�k�k��,2.9,��
2017/01/05,03:50,1.100,1.829,1.197,2.093,1.432,0.567,1.036,0.961,�k��,1.5,��
2017/01/05,04:00,1.097,1.829,1.198,2.091,1.436,0.569,1.038,0.961,�k�k��,1.5,��
2017/01/05,04:10,1.099,1.829,1.197,2.093,1.437,0.567,1.038,0.962,�k��,6.5,��
2017/01/05,04:20,1.100,1.831,1.195,2.092,1.436,0.568,1.039,0.961,�k��,8.5,��
2017/01/05,04:30,1.100,1.830,1.198,2.095,1.436,0.568,1.038,0.963,�k��,9.6,��
2017/01/05,04:40,1.097,1.829,1.199,2.096,1.435,0.569,1.040,0.963,�k��,8.5,��
2017/01/05,04:50,1.099,1.829,1.195,2.091,1.434,0.567,1.037,0.961,�k��,6.0,��
2017/01/05,05:00,1.096,1.828,1.195,2.099,1.435,0.566,1.039,0.962,�k��,9.8,��
2017/01/05,05:10,1.099,1.832,1.195,2.095,1.437,0.566,1.039,0.963,�k��,7.2,��
2017/01/05,05:20,1.099,1.827,1.197,2.092,1.436,0.568,1.035,0.961,�k��,8.7,��
2017/01/05,05:30,1.098,1.830,1.196,2.094,1.435,0.567,1.038,0.962,�k��,8.4,��
2017/01/05,05:40,1.098,1.828,1.197,2.094,1.435,0.568,1.039,0.963,�k��,7.9,��
2017/01/05,05:50,1.098,1.828,1.195,2.094,1.438,0.567,1.040,0.961,�k��,8.4,��
2017/01/05,06:00,1.098,1.829,1.197,2.093,1.434,0.567,1.037,0.961,�k��,7.6,��
2017/01/05,06:10,1.099,1.829,1.193,2.094,1.436,0.566,1.038,0.961,�k��,6.5,��
2017/01/05,06:20,1.099,1.830,1.198,2.096,1.437,0.567,1.038,0.963,�k��,9.5,��
2017/01/05,06:30,1.098,1.829,1.197,2.093,1.433,0.568,1.039,0.963,�k��,8.1,��
2017/01/05,06:40,1.099,1.830,1.197,2.095,1.437,0.567,1.038,0.964,�k��,7.4,��
2017/01/05,06:50,1.100,1.831,1.195,2.092,1.433,0.568,1.038,0.962,�k��,8.3,��
2017/01/05,07:00,1.099,1.830,1.198,2.095,1.435,0.566,1.037,0.962,�k�k��,8.3,��
2017/01/05,07:10,1.097,1.832,1.197,2.094,1.438,0.567,1.040,0.962,�k��,8.9,��
2017/01/05,07:20,1.099,1.830,1.197,2.095,1.435,0.567,1.039,0.964,�k�k��,8.3,��
2017/01/05,07:30,1.098,1.829,1.198,2.096,1.435,0.567,1.038,0.962,�k�k��,8.6,��
2017/01/05,07:40,1.096,1.829,1.195,2.096,1.433,0.567,1.039,0.963,�k�k��,9.8,��
2017/01/05,07:50,1.100,1.826,1.198,2.096,1.438,0.568,1.038,0.963,�k�k��,10.4,��
2017/01/05,08:00,1.099,1.831,1.199,2.093,1.435,0.568,1.039,0.964,�k�k��,11.0,��
2017/01/05,08:10,1.098,1.829,1.196,2.099,1.436,0.568,1.038,0.962,�k�k��,10.2,��
2017/01/05,08:20,1.099,1.831,1.202,2.097,1.438,0.567,1.038,0.962,�k�k��,7.2,��
2017/01/05,08:30,1.099,1.832,1.200,2.098,1.436,0.567,1.039,0.961,�k�k��,7.3,��
2017/01/05,08:40,1.099,1.833,1.199,2.097,1.438,0.568,1.040,0.964,�k�k��,7.7,��
2017/01/05,08:50,1.099,1.833,1.198,2.099,1.436,0.569,1.039,0.962,�k�k��,8.2,��
2017/01/05,09:00,1.099,1.832,1.201,2.098,1.436,0.568,1.038,0.964,�k�k��,9.8,��
2017/01/05,09:10,1.100,1.832,1.202,2.095,1.438,0.569,1.038,0.964,�k�k��,8.2,��
2017/01/05,09:20,1.100,1.833,1.201,2.096,1.438,0.567,1.041,0.964,�k��,9.8,��
2017/01/05,09:30,1.102,1.831,1.200,2.096,1.436,0.567,1.038,0.962,�k�k��,8.4,��
2017/01/05,09:40,1.102,1.836,1.202,2.101,1.440,0.569,1.039,0.963,�k��,6.6,��
2017/01/05,09:50,1.102,1.832,1.199,2.100,1.436,0.568,1.039,0.963,�k�k��,11.0,��
2017/01/05,10:00,1.103,1.836,1.198,2.099,1.439,0.569,1.040,0.964,�k�k��,9.7,��
2017/01/05,10:10,1.103,1.834,1.201,2.099,1.441,0.569,1.040,0.962,�k��,10.5,��
2017/01/05,10:20,1.104,1.838,1.203,2.101,1.442,0.568,1.040,0.964,�k��,8.3,��
2017/01/05,10:30,1.103,1.838,1.204,2.101,1.439,0.571,1.041,0.964,�k�k��,10.3,��
2017/01/05,10:40,1.101,1.839,1.204,2.101,1.440,0.570,1.041,0.963,�k�k��,11.7,��
2017/01/05,10:50,1.102,1.840,1.202,2.103,1.443,0.569,1.040,0.961,�k��,9.5,��
2017/01/05,11:00,1.104,1.840,1.203,2.103,1.442,0.569,1.040,0.963,�k�k��,9.6,��
2017/01/05,11:10,1.106,1.839,1.206,2.101,1.443,0.571,1.039,0.964,�k�k��,10.8,��
2017/01/05,11:20,1.104,1.839,1.203,2.101,1.445,0.570,1.039,0.965,�k��,13.0,��
2017/01/05,11:30,1.107,1.840,1.205,2.104,1.446,0.570,1.039,0.965,�k��,12.2,��
2017/01/05,11:40,1.106,1.840,1.203,2.104,1.443,0.570,1.041,0.965,�k��,11.0,��
2017/01/05,11:50,1.107,1.838,1.204,2.104,1.444,0.571,1.041,0.966,�k�k��,13.2,��
2017/01/05,12:00,1.107,1.839,1.205,2.108,1.446,0.572,1.041,0.965,�k�k��,12.0,��
2017/01/05,12:10,1.105,1.839,1.205,2.103,1.445,0.570,1.040,0.962,�k�k��,8.4,��
2017/01/05,12:20,1.107,1.839,1.205,2.102,1.445,0.569,1.041,0.966,�k��,9.2,��
2017/01/05,12:30,1.107,1.838,1.208,2.107,1.446,0.569,1.040,0.966,�k�k��,9.1,��
2017/01/05,12:40,1.107,1.840,1.206,2.108,1.445,0.571,1.040,0.967,�k�k��,8.0,��
2017/01/05,12:50,1.105,1.839,1.206,2.108,1.447,0.571,1.041,0.965,�k�k��,10.2,��
2017/01/05,13:00,1.111,1.846,1.205,2.106,1.447,0.571,1.040,0.965,�k�k��,10.3,��
2017/01/05,13:10,1.110,1.844,1.208,2.110,1.446,0.571,1.040,0.965,�k�k��,8.9,��
2017/01/05,13:20,1.109,1.841,1.204,2.106,1.447,0.572,1.043,0.963,�k�k��,11.8,��
2017/01/05,13:30,1.110,1.840,1.207,2.106,1.445,0.570,1.041,0.964,�k�k��,11.7,��
2017/01/05,13:40,1.109,1.841,1.207,2.108,1.446,0.569,1.040,0.965,�k��,10.7,��
2017/01/05,13:50,1.111,1.838,1.207,2.107,1.448,0.571,1.040,0.961,�k��,8.1,��
2017/01/05,14:00,1.110,1.843,1.206,2.106,1.448,0.571,1.041,0.964,�k��,11.8,��
2017/01/05,14:10,1.110,1.841,1.208,2.105,1.450,0.570,1.042,0.965,�k��,9.4,��
2017/01/05,14:20,1.107,1.843,1.205,2.107,1.446,0.570,1.043,0.965,�k��,10.8,��
2017/01/05,14:30,1.111,1.840,1.205,2.105,1.448,0.569,1.042,0.964,�k��,9.8,��
2017/01/05,14:40,1.110,1.845,1.206,2.108,1.450,0.570,1.040,0.965,�k�k��,8.2,��
2017/01/05,14:50,1.112,1.845,1.208,2.106,1.446,0.572,1.044,0.965,�k��,7.2,��
2017/01/05,15:00,1.110,1.841,1.206,2.106,1.451,0.570,1.043,0.966,�k��,11.3,��
2017/01/05,15:10,1.109,1.845,1.206,2.108,1.448,0.570,1.043,0.966,�k��,10.2,��
2017/01/05,15:20,1.108,1.846,1.208,2.109,1.448,0.571,1.042,0.965,�k��,6.8,��
2017/01/05,15:30,1.109,1.844,1.206,2.106,1.448,0.570,1.040,0.965,�k��,9.7,��
2017/01/05,15:40,1.108,1.847,1.205,2.106,1.450,0.569,1.042,0.964,�k��,10.3,��
2017/01/05,15:50,1.108,1.843,1.206,2.106,1.447,0.567,1.039,0.966,�k��,9.3,��
2017/01/05,16:00,1.107,1.844,1.206,2.105,1.446,0.568,1.039,0.965,�k��,11.1,��
2017/01/05,16:10,1.106,1.844,1.206,2.104,1.448,0.568,1.038,0.965,�k��,9.6,��
2017/01/05,16:20,1.106,1.846,1.208,2.104,1.447,0.567,1.041,0.964,�k��,8.7,��
2017/01/05,16:30,1.104,1.843,1.206,2.107,1.447,0.567,1.039,0.965,�k��,8.3,��
2017/01/05,16:40,1.105,1.843,1.203,2.105,1.447,0.567,1.041,0.963,�k��,9.3,��
2017/01/05,16:50,1.107,1.843,1.201,2.106,1.446,0.566,1.040,0.963,�k��,7.8,��
2017/01/05,17:00,1.105,1.843,1.203,2.104,1.445,0.568,1.039,0.964,�k�k��,7.6,��
2017/01/05,17:10,1.105,1.844,1.202,2.106,1.447,0.567,1.040,0.963,�k�k��,7.8,��
2017/01/05,17:20,1.103,1.844,1.205,2.104,1.449,0.566,1.041,0.963,�k�k��,7.4,��
2017/01/05,17:30,1.104,1.842,1.204,2.106,1.447,0.568,1.042,0.964,�k�k��,5.9,��
2017/01/05,17:40,1.105,1.845,1.204,2.104,1.446,0.568,1.040,0.963,�k�k��,7.2,��
2017/01/05,17:50,1.099,1.845,1.204,2.104,1.443,0.569,1.041,0.962,�k��,6.9,��
2017/01/05,18:00,1.102,1.840,1.203,2.104,1.446,0.566,1.040,0.963,�k��,6.5,��
2017/01/05,18:10,1.102,1.843,1.204,2.106,1.444,0.565,1.038,0.964,�k��,5.6,��
2017/01/05,18:20,1.102,1.843,1.203,2.103,1.447,0.567,1.040,0.963,�k�k��,6.2,��
2017/01/05,18:30,1.102,1.842,1.203,2.103,1.446,0.567,1.040,0.963,�k��,6.3,��
2017/01/05,18:40,1.103,1.841,1.203,2.101,1.445,0.569,1.039,0.963,�k��,8.5,��
2017/01/05,18:50,1.103,1.844,1.205,2.104,1.446,0.569,1.040,0.962,�k��,7.0,��
2017/01/05,19:00,1.102,1.843,1.203,2.106,1.444,0.567,1.039,0.963,�k��,8.3,��
2017/01/05,19:10,1.104,1.839,1.201,2.103,1.446,0.568,1.040,0.962,�k�k��,6.8,��
2017/01/05,19:20,1.102,1.841,1.203,2.103,1.447,0.568,1.038,0.962,�k�k��,7.5,��
2017/01/05,19:30,1.102,1.841,1.202,2.105,1.447,0.566,1.039,0.961,�k�k��,8.1,��
2017/01/05,19:40,1.104,1.840,1.202,2.102,1.446,0.567,1.039,0.964,�k��,9.1,��
2017/01/05,19:50,1.100,1.845,1.204,2.103,1.445,0.568,1.039,0.963,�k��,8.6,��
2017/01/05,20:00,1.101,1.841,1.203,2.104,1.445,0.565,1.038,0.963,�k��,8.6,��
2017/01/05,20:10,1.100,1.842,1.203,2.104,1.445,0.568,1.039,0.962,�k��,9.7,��
2017/01/05,20:20,1.101,1.843,1.201,2.103,1.446,0.569,1.037,0.961,�k��,10.4,��
2017/01/05,20:30,1.099,1.842,1.201,2.104,1.446,0.569,1.038,0.962,�k��,9.9,��
2017/01/05,20:40,1.100,1.843,1.203,2.104,1.442,0.565,1.038,0.964,�k�k��,11.0,��
2017/01/05,20:50,1.100,1.843,1.203,2.102,1.445,0.568,1.038,0.962,�k�k��,10.6,��
2017/01/05,21:00,1.100,1.842,1.202,2.102,1.445,0.566,1.040,0.963,�k��,8.4,��
2017/01/05,21:10,1.101,1.842,1.201,2.104,1.445,0.566,1.039,0.963,�k��,8.4,��
2017/01/05,21:20,1.098,1.843,1.202,2.105,1.441,0.566,1.038,0.962,�k��,8.2,��
2017/01/05,21:30,1.100,1.841,1.201,2.103,1.443,0.567,1.037,0.960,�k�k��,9.1,��
2017/01/05,21:40,1.101,1.840,1.200,2.101,1.443,0.565,1.037,0.962,�k�k��,8.5,��
2017/01/05,21:50,1.100,1.840,1.200,2.102,1.443,0.566,1.038,0.962,�k��,8.6,��
2017/01/05,22:00,1.099,1.840,1.201,2.101,1.447,0.566,1.038,0.963,�k�k��,7.9,��
2017/01/05,22:10,1.102,1.839,1.201,2.101,1.446,0.567,1.039,0.964,�k�k��,9.5,��
2017/01/05,22:20,1.101,1.842,1.201,2.100,1.445,0.565,1.039,0.962,�k��,8.7,��
2017/01/05,22:30,1.103,1.838,1.202,2.106,1.445,0.566,1.039,0.962,�k�k��,7.3,��
2017/01/05,22:40,1.099,1.839,1.200,2.103,1.441,0.567,1.038,0.964,�k��,7.5,��
2017/01/05,22:50,1.100,1.839,1.201,2.104,1.444,0.566,1.038,0.962,�k��,8.1,��
2017/01/05,23:00,1.103,1.840,1.201,2.103,1.445,0.568,1.036,0.961,�k��,8.0,��
2017/01/05,23:10,1.098,1.840,1.201,2.102,1.442,0.568,1.038,0.962,�k��,8.4,��
2017/01/05,23:20,1.100,1.841,1.200,2.106,1.444,0.565,1.038,0.962,�k��,9.5,��
2017/01/05,23:30,1.100,1.843,1.200,2.100,1.444,0.567,1.038,0.962,�k��,8.9,��
2017/01/05,23:40,1.099,1.843,1.203,2.101,1.441,0.568,1.038,0.962,�k��,9.2,��
2017/01/05,23:50,1.099,1.838,1.200,2.102,1.444,0.567,1.037,0.962,�k��,7.8,��
